Plymouth, MA

7:59 AM EST on January 21, 2018 (GMT -0500)
Plymouth Municipal

Weather History for KPYM - September, 2013

Change the Weather History Date:

Thursday, September 12, 2013

  Actual Average Record
Temperature  
Mean Temperature 75 °F -  
Max Temperature 81 °F 75 °F 95 °F (1983)
Min Temperature 69 °F 52 °F 40 °F (1977)
Cooling Degree Days 10    
Growing Degree Days 25 (Base 50)    
Moisture  
Dew Point 68 °F    
Average Humidity 82    
Maximum Humidity 90    
Minimum Humidity 69    
Precipitation  
Precipitation 0.04 in - - ()
Sea Level Pressure  
Sea Level Pressure 29.86 in    
Wind  
Wind Speed 8 mph (SSW)    
Max Wind Speed 20 mph    
Max Gust Speed 25 mph    
Visibility 8 miles    
Events Rain    
Averages and records for this station are not official NWS values.
T = Trace of Precipitation, MM = Missing Value Source: NWS Daily Summary

Daily Weather History Graph

Daily Weather History Graph

Search for Another Location

Airport or City:

Trip Planner

Search our weather history database for the weather conditions in past years. The results will help you decide how hot, cold, wet, or windy it might be!

Date:

Astronomy

Sep. 12, 2013 Rise Set
Actual Time 6:20 AM EDT 6:57 PM EDT
Civil Twilight 5:52 AM EDT 7:25 PM EDT
Nautical Twilight 5:18 AM EDT 7:58 PM EDT
Astronomical Twilight 4:44 AM EDT 8:32 PM EDT
Moon 1:50 PM EDT (9/12) 11:43 PM EDT (9/12)
Length of Visible Light 13h 33m
Length of Day
12h 37m
Waxing Crescent, 50% of the Moon is Illuminated
Sep 12
Waxing Crescent
Sep 12
First Quarter
Sep 19
Full
Sep 26
Last Quarter
Oct 4
New

Hourly Weather History & Observations

Time (EDT) Temp. Heat Index Dew Point Humidity Pressure Visibility Wind Dir Wind Speed Gust Speed Precip Events Conditions
12:52 AM 73.0 °F - 68.0 °F 84% 29.99 in 8.0 mi Calm Calm - N/A   Clear
1:52 AM 71.1 °F - 66.9 °F 87% 29.97 in 6.0 mi South 5.8 mph - N/A   Clear
2:48 AM 69.8 °F - 66.2 °F 88% 29.97 in 5.0 mi South 4.6 mph - N/A   Partly Cloudy
2:52 AM 70.0 °F - 66.9 °F 90% 29.96 in 5.0 mi South 5.8 mph - N/A   Partly Cloudy
3:08 AM 69.8 °F - 66.2 °F 88% 29.96 in 4.0 mi South 4.6 mph - N/A   Mostly Cloudy
3:52 AM 70.0 °F - 66.9 °F 90% 29.96 in 4.0 mi South 4.6 mph - N/A   Mostly Cloudy
4:01 AM 69.8 °F - 66.2 °F 88% 29.96 in 4.0 mi South 6.9 mph - N/A   Scattered Clouds
4:38 AM 69.8 °F - 66.2 °F 88% 29.96 in 4.0 mi SSW 5.8 mph - N/A   Mostly Cloudy
4:52 AM 70.0 °F - 66.9 °F 90% 29.95 in 4.0 mi South 4.6 mph - N/A   Overcast
5:52 AM 71.1 °F - 68.0 °F 90% 29.95 in 5.0 mi SW 6.9 mph - N/A   Overcast
6:52 AM 71.1 °F - 68.0 °F 90% 29.95 in 3.0 mi SSW 9.2 mph - N/A   Overcast
7:52 AM 73.0 °F - 69.1 °F 87% 29.95 in 4.0 mi SW 9.2 mph - N/A   Overcast
8:22 AM 73.4 °F - 69.8 °F 88% 29.94 in 6.0 mi SW 10.4 mph - N/A   Haze
8:52 AM 75.9 °F - 69.1 °F 79% 29.93 in 8.0 mi SSW 8.1 mph 16.1 mph N/A   Clear
9:52 AM 78.1 °F - 69.1 °F 74% 29.92 in 9.0 mi SSW 11.5 mph 17.3 mph N/A   Partly Cloudy
10:52 AM 80.1 °F 82.9 °F 69.1 °F 69% 29.90 in 10.0 mi SSW 12.7 mph 21.9 mph N/A   Clear
11:52 AM 81.0 °F 84.4 °F 70.0 °F 69% 29.89 in 10.0 mi SW 15.0 mph 23.0 mph N/A   Clear
12:52 PM 79.0 °F - 69.1 °F 72% 29.87 in 10.0 mi SSW 12.7 mph 21.9 mph N/A   Clear
1:52 PM 81.0 °F 84.4 °F 70.0 °F 69% 29.84 in 10.0 mi SSW 12.7 mph 17.3 mph N/A   Clear
2:52 PM 77.0 °F - 68.0 °F 74% 29.82 in 9.0 mi SW 15.0 mph 23.0 mph N/A   Clear
3:52 PM 78.1 °F - 68.0 °F 71% 29.81 in 10.0 mi SSW 13.8 mph 21.9 mph N/A   Partly Cloudy
4:24 PM 78.8 °F - 69.8 °F 74% 29.80 in 10.0 mi SW 13.8 mph 24.2 mph N/A   Mostly Cloudy
4:44 PM 75.2 °F - 68.0 °F 78% 29.79 in 9.0 mi SW 19.6 mph 25.3 mph N/A   Scattered Clouds
4:52 PM 75.9 °F - 68.0 °F 76% 29.78 in 9.0 mi SW 12.7 mph 25.3 mph N/A   Scattered Clouds
5:19 PM 75.2 °F - 68.0 °F 78% 29.78 in 9.0 mi SW 16.1 mph 25.3 mph N/A   Mostly Cloudy
5:52 PM 73.9 °F - 68.0 °F 82% 29.78 in 9.0 mi SSW 11.5 mph 20.7 mph N/A   Mostly Cloudy
6:52 PM 73.0 °F - 68.0 °F 84% 29.76 in 9.0 mi SSW 13.8 mph 20.7 mph N/A   Mostly Cloudy
7:52 PM 73.0 °F - 66.9 °F 81% 29.76 in 10.0 mi SW 17.3 mph 20.7 mph N/A   Overcast
8:52 PM 73.0 °F - 66.9 °F 81% 29.75 in 10.0 mi SW 11.5 mph 20.7 mph N/A   Overcast
9:52 PM 72.0 °F - 66.9 °F 84% 29.74 in 10.0 mi SSW 11.5 mph 19.6 mph N/A   Overcast
10:52 PM 72.0 °F - 66.0 °F 81% 29.73 in 10.0 mi SSW 10.4 mph 18.4 mph N/A   Mostly Cloudy
11:29 PM 71.6 °F - 66.2 °F 83% 29.72 in 5.0 mi SW 11.5 mph - 0.02 in Rain Rain
11:44 PM 71.6 °F - 66.2 °F 83% 29.72 in 9.0 mi SW 10.4 mph - 0.04 in Rain Light Rain
11:52 PM 71.1 °F - 66.9 °F 87% 29.71 in 10.0 mi SW 10.4 mph - 0.04 in   Overcast